Location: B�rgermoos
(47.6500°N, 9.0667°E)
Time: 15:45:19
(UTC+00:00)

Cosmos 2082 Rocket - Pass Details

Date: 18 September 2020
Orbit: 834 x 853 km, 71.0° (Epoch: 23 October)

Event Time Altitude Azimuth Distance (km) Brightness Sun altitude
Rises 22:23:47 0° 325° (NW) 3,392 6.2 -39.6°
Reaches altitude 10° 22:26:27 10° 316° (NW) 2,454 5.2 -39.7°
Enters shadow 22:28:04 18° 305° (NW) 1,951 4.5 -39.8°
